sat.trackr.live / text

‹ back to catalog

STARLINK-37725

NORAD 69224 · 2026-115P

PAYLOAD ACTIVE UNKNOWN

§ Identity

Operator
Country
US
Launch date
2026-05-26
Launch site
AFWTR
Launch vehicle
Mass (kg)
RCS (m²)

Purposes: comms

External: N2YO · Heavens-Above · Gunter

§ Orbital elements

Epoch: 2026-09-19T19:09:31.366944Z

Period
93.91 min
Inclination
97.2854°
Eccentricity
0.0000965
Mean motion
15.33464638 rev/d
Perigee alt
464.8 km
Apogee alt
466.1 km
Semi-major
6,843.6 km
B*
4.2202e-4
RAAN
278.9138°
Arg perigee
86.3591°
Mean anomaly
273.7762°
Rev number
1,919

§ Raw data

STARLINK-377251 69224U 26115P   26262.79827971  .00013582  00000+0  42202-3 0  99972 69224  97.2854 278.9138 0000965  86.3591 273.7762 15.33464638 19197

JSON: /api/v1/satellites/69224 · /tle

For live sub-satellite position, see the globe view (requires WebGL).

§ Visibility from observer

Set your observer location to see the next 7 days of passes ≥ 10°. The values pass through the URL so the page stays shareable.

No JS? Fill the form by hand. The geolocation button needs JavaScript.